When you browse on this site, cookies collect data to enhance your experience and personalize the content and advertising you see.
Visit our Privacy Policy to learn more. By continuing to use the site, you agree to this use of cookies and data.
  • In Latvia
  • List of Countries
  • For 7 days
  • Water Temperature
  • Satellite Maps
  • Weather Map
  • Weather Widgets
  • user-avatar
    Login

    Hourly Weather Panika

    Today, 22 February, Friday

    Time Temperature Precipitation Wind Pressure Humidity
    00:00 -14°C° 0.2 mm 6 mps 744 mmHg 83%
    01:00 -14°C° 0.2 mm 6 mps 744 mmHg 83%
    02:00 -14°C° 0 mm 6 mps 745 mmHg 83%
    03:00 -14°C° 0.2 mm 6 mps 745 mmHg 83%
    04:00 -15°C° 0.2 mm 7 mps 746 mmHg 82%
    05:00 -15°C° 0.2 mm 7 mps 746 mmHg 82%
    06:00 -15°C° 0.1 mm 7 mps 747 mmHg 81%
    07:00 -15°C° 0.1 mm 7 mps 748 mmHg 81%
    08:00 -15°C° 0 mm 7 mps 748 mmHg 80%
    09:00 -14°C° 0.1 mm 7 mps 749 mmHg 79%
    10:00 -14°C° 0.1 mm 7 mps 750 mmHg 77%
    11:00 -15°C° 0.1 mm 8 mps 751 mmHg 76%
    12:00 -13°C° 0 mm 7 mps 752 mmHg 74%
    13:00 -13°C° 0 mm 7 mps 752 mmHg 72%
    14:00 -12°C° 0 mm 7 mps 753 mmHg 70%
    15:00 -13°C° 0 mm 7 mps 754 mmHg 72%
    16:00 -12°C° 0 mm 6 mps 755 mmHg 73%
    17:00 -13°C° 0 mm 5 mps 756 mmHg 75%
    18:00 -13°C° 0 mm 5 mps 757 mmHg 77%
    19:00 -13°C° 0 mm 5 mps 758 mmHg 79%
    20:00 -13°C° 0 mm 5 mps 758 mmHg 81%
    21:00 -12°C° 0 mm 4 mps 759 mmHg 84%
    22:00 -12°C° 0 mm 4 mps 760 mmHg 86%
    23:00 -12°C° 0 mm 4 mps 760 mmHg 89%

    Tomorrow, 23 February, Saturday

    Time Temperature Precipitation Wind Pressure Humidity
    00:00 -14°C° 0 mm 4 mps 761 mmHg 90%
    01:00 -14°C° 0 mm 3 mps 761 mmHg 91%
    02:00 -14°C° 0 mm 3 mps 762 mmHg 93%
    03:00 -14°C° 0 mm 2 mps 762 mmHg 93%
    04:00 -15°C° 0 mm 2 mps 762 mmHg 94%
    05:00 -16°C° 0 mm 2 mps 762 mmHg 94%
    06:00 -16°C° 0 mm 2 mps 762 mmHg 92%
    07:00 -15°C° 0 mm 2 mps 762 mmHg 90%
    08:00 -15°C° 0 mm 2 mps 762 mmHg 87%
    09:00 -13°C° 0 mm 2 mps 762 mmHg 84%
    10:00 -12°C° 0 mm 3 mps 761 mmHg 81%
    11:00 -10°C° 0 mm 3 mps 761 mmHg 78%
    12:00 -9°C° 0 mm 3 mps 760 mmHg 76%
    13:00 -9°C° 0 mm 4 mps 760 mmHg 73%
    14:00 -8°C° 0 mm 4 mps 759 mmHg 71%
    15:00 -8°C° 0.3 mm 4 mps 758 mmHg 78%
    16:00 -10°C° 0.3 mm 5 mps 757 mmHg 84%
    17:00 -10°C° 0.3 mm 5 mps 756 mmHg 90%
    18:00 -10°C° 0.4 mm 5 mps 756 mmHg 90%
    19:00 -8°C° 0.4 mm 5 mps 755 mmHg 90%
    20:00 -8°C° 0.4 mm 4 mps 754 mmHg 90%
    21:00 -8°C° 0.3 mm 4 mps 754 mmHg 91%
    22:00 -7°C° 0.3 mm 4 mps 753 mmHg 92%
    23:00 -7°C° 0.3 mm 4 mps 753 mmHg 93%

    Day after tomorrow, 24 February, Sunday

    Time Temperature Precipitation Wind Pressure Humidity
    00:00 -4°C° 0.1 mm 3 mps 753 mmHg 93%
    01:00 -2°C° 0.1 mm 3 mps 753 mmHg 94%
    02:00 -1°C° 0.1 mm 3 mps 753 mmHg 94%
    03:00 -1°C° 0.1 mm 3 mps 753 mmHg 94%
    04:00 0°C° 0.1 mm 3 mps 753 mmHg 94%
    05:00 0°C° 0.1 mm 3 mps 753 mmHg 95%
    06:00 0°C° 0.1 mm 3 mps 753 mmHg 95%
    07:00 0°C° 0.1 mm 3 mps 753 mmHg 95%
    08:00 0°C° 0.1 mm 3 mps 753 mmHg 96%
    09:00 0°C° 0.1 mm 3 mps 753 mmHg 96%
    10:00 +1°C° 0.1 mm 3 mps 753 mmHg 97%
    11:00 0°C° 0.1 mm 4 mps 753 mmHg 97%
    12:00 +1°C° 0.1 mm 3 mps 754 mmHg 97%
    13:00 0°C° 0.1 mm 3 mps 754 mmHg 96%
    14:00 0°C° 0.1 mm 3 mps 754 mmHg 96%
    15:00 0°C° 0 mm 3 mps 754 mmHg 95%
    16:00 0°C° 0 mm 3 mps 754 mmHg 95%
    17:00 +1°C° 0 mm 2 mps 754 mmHg 94%
    18:00 +1°C° 0 mm 2 mps 754 mmHg 95%
    19:00 -1°C° 0 mm 2 mps 754 mmHg 95%
    20:00 -1°C° 0 mm 2 mps 754 mmHg 95%
    21:00 -1°C° 0 mm 2 mps 754 mmHg 95%
    22:00 -1°C° 0 mm 2 mps 753 mmHg 95%
    23:00 -1°C° 0 mm 2 mps 753 mmHg 95%

    25 February, Monday

    Time Temperature Precipitation Wind Pressure Humidity
    00:00 -1°C° 0.2 mm 3 mps 752 mmHg 95%
    01:00 -1°C° 0.2 mm 3 mps 752 mmHg 95%
    02:00 0°C° 0.2 mm 3 mps 751 mmHg 95%
    03:00 -1°C° 0.4 mm 4 mps 750 mmHg 95%
    04:00 -1°C° 0.4 mm 4 mps 750 mmHg 95%
    05:00 -1°C° 0.4 mm 4 mps 749 mmHg 94%
    06:00 -1°C° 0.1 mm 4 mps 749 mmHg 94%
    07:00 -1°C° 0.1 mm 4 mps 749 mmHg 93%
    08:00 -1°C° 0.1 mm 4 mps 749 mmHg 93%
    09:00 -1°C° 0.1 mm 4 mps 748 mmHg 90%
    10:00 -1°C° 0.1 mm 4 mps 748 mmHg 88%
    11:00 -1°C° 0.1 mm 5 mps 748 mmHg 86%
    12:00 -1°C° 0 mm 5 mps 748 mmHg 86%
    13:00 -1°C° 0 mm 5 mps 748 mmHg 85%
    14:00 -1°C° 0 mm 5 mps 747 mmHg 85%
    15:00 -1°C° 0.1 mm 5 mps 747 mmHg 85%
    16:00 -1°C° 0.1 mm 5 mps 746 mmHg 84%
    17:00 -2°C° 0.1 mm 5 mps 746 mmHg 83%
    18:00 -3°C° 0.1 mm 6 mps 746 mmHg 84%
    19:00 -3°C° 0.1 mm 6 mps 745 mmHg 84%
    20:00 -2°C° 0.1 mm 6 mps 745 mmHg 84%
    21:00 -2°C° 0.1 mm 6 mps 745 mmHg 84%
    22:00 -2°C° 0.1 mm 5 mps 744 mmHg 84%
    23:00 -2°C° 0.1 mm 5 mps 744 mmHg 84%

    26 February, Tuesday

    Time Temperature Precipitation Wind Pressure Humidity
    00:00 -2°C° 0.1 mm 5 mps 744 mmHg 84%
    01:00 -2°C° 0.1 mm 5 mps 744 mmHg 85%
    02:00 -2°C° 0.1 mm 5 mps 744 mmHg 86%
    03:00 -2°C° 0.1 mm 4 mps 744 mmHg 87%
    04:00 -2°C° 0.1 mm 4 mps 744 mmHg 88%
    05:00 -2°C° 0.1 mm 3 mps 744 mmHg 90%
    06:00 -2°C° 0 mm 3 mps 743 mmHg 90%
    07:00 -2°C° 0 mm 3 mps 743 mmHg 90%
    08:00 -3°C° 0 mm 4 mps 743 mmHg 91%
    09:00 -1°C° 0 mm 3 mps 742 mmHg 91%
    10:00 -1°C° 0 mm 3 mps 742 mmHg 91%
    11:00 -1°C° 0 mm 3 mps 741 mmHg 91%
    12:00 -1°C° 0 mm 2 mps 741 mmHg 90%
    13:00 -1°C° 0 mm 2 mps 741 mmHg 90%
    14:00 -1°C° 0 mm 2 mps 740 mmHg 89%
    15:00 -1°C° 0.1 mm 2 mps 741 mmHg 91%
    16:00 0°C° 0.1 mm 1 mps 741 mmHg 92%
    17:00 0°C° 0.1 mm 1 mps 741 mmHg 93%
    18:00 0°C° 0 mm 1 mps 741 mmHg 93%
    19:00 -2°C° 0 mm 2 mps 742 mmHg 92%
    20:00 -2°C° 0 mm 2 mps 742 mmHg 92%
    21:00 -2°C° 0 mm 2 mps 743 mmHg 91%
    22:00 -2°C° 0 mm 2 mps 743 mmHg 91%
    23:00 -2°C° 0 mm 2 mps 744 mmHg 90%

    27 February, Wednesday

    Time Temperature Precipitation Wind Pressure Humidity
    00:00 -2°C° 0 mm 3 mps 744 mmHg 90%
    01:00 -2°C° 0 mm 3 mps 745 mmHg 90%
    02:00 -2°C° 0 mm 3 mps 745 mmHg 90%
    03:00 -4°C° 0 mm 3 mps 746 mmHg 91%
    04:00 -5°C° 0 mm 3 mps 746 mmHg 92%
    05:00 -5°C° 0 mm 3 mps 747 mmHg 94%
    06:00 -5°C° 0 mm 3 mps 747 mmHg 92%
    07:00 -4°C° 0 mm 4 mps 748 mmHg 91%
    08:00 -4°C° 0 mm 4 mps 748 mmHg 90%
    09:00 -3°C° 0.1 mm 4 mps 749 mmHg 87%
    10:00 -2°C° 0.1 mm 3 mps 749 mmHg 84%
    11:00 -2°C° 0.1 mm 3 mps 749 mmHg 81%
    12:00 -2°C° 0 mm 3 mps 749 mmHg 80%
    13:00 -2°C° 0 mm 3 mps 748 mmHg 80%
    14:00 -2°C° 0 mm 3 mps 748 mmHg 79%
    15:00 -4°C° 0 mm 3 mps 748 mmHg 82%
    16:00 -4°C° 0 mm 2 mps 747 mmHg 86%
    17:00 -5°C° 0 mm 2 mps 747 mmHg 89%
    18:00 -5°C° 0 mm 2 mps 746 mmHg 90%
    19:00 -5°C° 0 mm 2 mps 746 mmHg 92%
    20:00 -6°C° 0 mm 3 mps 745 mmHg 93%
    21:00 -6°C° 0 mm 3 mps 744 mmHg 93%
    22:00 -6°C° 0 mm 3 mps 743 mmHg 93%
    23:00 -7°C° 0 mm 4 mps 742 mmHg 93%
    Show more